Back to catalog

TIANMU-1 10

AliveWeatherSSO
NORAD 57402·PAYLOAD·🇨🇳 China

Launched Jul 20, 2023 from Jiuquan Satellite Launch Center

Loading…

Next Passes (next 24 hours)

TLE

FreshSource: Space-Track

Epoch: Sep 14, 2026, 14:25 UTC

1 57402U 23101D   26257.60109159  .00004990  00000-0  17050-3 0  9996
2 57402  97.2532 306.5018 0005062 157.1471 202.9997 15.30730439175310

Track TIANMU-1 10 in real time with AllMySat

Download on the App Store